Upington, South Africa

4:56 AM SAST on May 22, 2018 (GMT +0200)
Upington

Weather History for FAUP - September, 2012

Change the Weather History Date:

Thursday, September 27, 2012

  Actual Average Record
Temperature  
Mean Temperature 60 °F -  
Max Temperature 74 °F 84 °F 98 °F (1997)
Min Temperature 46 °F 55 °F 35 °F (2017)
Degree Days  
Heating Degree Days 5    
Growing Degree Days 10 (Base 50)    
Moisture  
Dew Point 37 °F    
Average Humidity 46    
Maximum Humidity 82    
Minimum Humidity 15    
Precipitation  
Precipitation 0.00 in 0.00 in - ()
Sea Level Pressure  
Sea Level Pressure 30.02 in    
Wind  
Wind Speed 8 mph ()    
Max Wind Speed 20 mph    
Max Gust Speed -    
Visibility 6.2 miles    
Events      
Averages and records for this station are not official NWS values.
T = Trace of Precipitation, MM = Missing Value Source: Averaged Metar Reports

Daily Weather History Graph

Daily Weather History Graph

Search for Another Location

Airport or City:

Astronomy

Sep. 27, 2012 Rise Set
Actual Time 6:18 AM SAST 6:33 PM SAST
Civil Twilight 5:54 AM SAST 6:57 PM SAST
Nautical Twilight 5:27 AM SAST 7:24 PM SAST
Astronomical Twilight 4:59 AM SAST 7:52 PM SAST
Moon 4:16 PM SAST (9/27) 4:19 AM SAST (9/27)
Length of Visible Light 13h 02m
Length of Day
12h 15m
Waxing Gibbous, 92% of the Moon is Illuminated
Sep 27
Waxing Gibbous
Sep 30
Full
Oct 8
Last Quarter
Oct 15
New
Oct 22
First Quarter

Hourly Weather History & Observations

Time (SAST) Temp. Windchill Dew Point Humidity Pressure Visibility Wind Dir Wind Speed Gust Speed Precip Events Conditions
12:00 AM 62.6 °F - 35.6 °F 37% 29.98 in - SW 9.2 mph - N/A   Unknown
1:00 AM 59.0 °F - 42.8 °F 55% 29.98 in - SSW 5.8 mph - N/A   Unknown
2:00 AM 55 °F - 44 °F 55%  in - SW 5.8 mph - -  
2:00 AM 53.6 °F - 42.8 °F 67% 29.98 in - SW 5.8 mph - N/A   Unknown
3:00 AM 51.8 °F - 42.8 °F 71% 29.98 in - WSW 4.6 mph - N/A   Unknown
4:00 AM 48.2 °F - 41.0 °F 76% 29.98 in - West 3.5 mph - N/A   Unknown
5:00 AM 48 °F - 41 °F 70%  in 25 mi WSW 5.8 mph - -   Scattered Clouds
5:00 AM 46.4 °F 43.5 °F 41.0 °F 81% 29.98 in - WSW 5.8 mph - N/A   Clear
6:00 AM 46.4 °F 44.3 °F 41.0 °F 81% 30.01 in - WSW 4.6 mph - N/A   Clear
7:00 AM 48.2 °F - 42.8 °F 82% 30.04 in 6.2 mi SW 5.8 mph - N/A   Partly Cloudy
7:37 AM 51.8 °F - 42.8 °F 71% 30.06 in 6.2 mi SSW 10.4 mph - N/A   Partly Cloudy
8:00 AM 54 °F - 43 °F 57%  in 25 mi SSW 12.7 mph - -   Scattered Clouds
8:00 AM 53.6 °F - 42.8 °F 67% 30.06 in 6.2 mi SSW 12.7 mph - N/A   Partly Cloudy
9:00 AM 55.4 °F - 42.8 °F 63% 30.06 in 6.2 mi SSW 11.5 mph - N/A   Partly Cloudy
9:49 AM 59.0 °F - 41.0 °F 51% 30.09 in 6.2 mi SSW 8.1 mph - N/A   Partly Cloudy
10:00 AM 59.0 °F - 41.0 °F 51% 30.09 in 6.2 mi SW 8.1 mph - N/A   Partly Cloudy
11:00 AM 61 °F - 40 °F 35%  in 25 mi South 6.9 mph - -   Scattered Clouds
11:00 AM 60.8 °F - 39.2 °F 45% 30.06 in 6.2 mi South 5.8 mph - N/A   Partly Cloudy
11:47 AM 64.4 °F - 39.2 °F 40% 30.06 in 6.2 mi SW 4.6 mph - N/A   Partly Cloudy
12:00 PM 64.4 °F - 39.2 °F 40% 30.04 in 6.2 mi WSW 8.1 mph - N/A   Partly Cloudy
1:00 PM 68.0 °F - 37.4 °F 33% 30.01 in 6.2 mi WSW 6.9 mph - N/A   Partly Cloudy
2:00 PM 71 °F - 36 °F 17%  in 25 mi WSW 9.2 mph - -   Scattered Clouds
2:00 PM 69.8 °F - 35.6 °F 28% 29.98 in 6.2 mi WSW 8.1 mph - N/A   Partly Cloudy
3:00 PM 73.4 °F - 33.8 °F 23% 29.98 in 6.2 mi West 9.2 mph - N/A   Partly Cloudy
4:00 PM 71.6 °F - 32.0 °F 23% 29.98 in 6.2 mi West 10.4 mph - N/A   Partly Cloudy
5:00 PM 71 °F - 34 °F 15%  in 25 mi West 11.5 mph - -   Scattered Clouds
5:00 PM 69.8 °F - 32.0 °F 25% 29.95 in 6.2 mi West 11.5 mph - N/A   Partly Cloudy
6:00 PM 69.8 °F - 32.0 °F 25% 29.95 in 6.2 mi WSW 12.7 mph - N/A   Partly Cloudy
7:00 PM 62.6 °F - 35.6 °F 37% 29.98 in 6.2 mi WSW 19.6 mph - N/A   Partly Cloudy
8:00 PM 60 °F - 33 °F 24%  in 25 mi SW 16.1 mph - -   Scattered Clouds
8:00 PM 59.0 °F - 32.0 °F 36% 30.01 in 6.2 mi SW 15.0 mph - N/A   Partly Cloudy
9:00 PM 57.2 °F - 30.2 °F 36% 30.04 in - SW 12.7 mph - N/A   Unknown
10:00 PM 55.4 °F - 26.6 °F 33% 30.06 in - SW 11.5 mph - N/A   Unknown
11:00 PM 54 °F - 28 °F 24%  in - SW 15.0 mph - -  
11:00 PM 53.6 °F - 28.4 °F 38% 30.04 in - SW 15.0 mph - N/A   Unknown